EW2649 Weather Reports


Display with metric or nautical units.
time (UTC)temp
F
wind
direction
speed
MPH
gust
MPH
rain 1hr
in
rain 24hr
in
rain mn
in
humidity
%
barometer
mb
20260505034608 53 113 1.0 3.0 0.00 0.00 0.00 80 1011.2
20260505033035 54 222 0.0 2.0 0.00 0.00 0.00 79 1010.8
20260505031624 55 222 1.0 3.0 0.00 0.00 0.00 78 1010.7
20260505030040 56 299 1.0 2.0 0.00 0.00 0.00 75 1010.7
20260505024506 56 299 0.0 1.0 0.00 0.00 0.00 71 1010.7
20260505023059 57 275 3.0 6.0 0.00 0.00 0.00 69 1010.6
20260505021536 58 335 0.0 3.0 0.00 0.00 0.00 70 1010.5
20260505020112 58 348 1.0 3.0 0.00 0.00 0.00 70 1010.6
20260505014528 59 360 2.0 4.0 0.00 0.00 0.00 70 1010.6
20260505013121 59 227 0.0 2.0 0.00 0.00 0.00 71 1010.6
20260505011550 59 325 4.0 10.0 0.00 0.00 0.00 69 1010.7
20260505010134 61 306 2.0 10.0 0.00 0.00 0.00 70 1010.8
20260505004550 60 223 0.0 5.0 0.00 0.00 0.00 71 1010.8
20260505003009 59 255 4.0 9.0 0.00 0.00 0.00 70 1010.9
20260505001602 59 235 6.0 13.0 0.00 0.00 0.00 67 1010.9
20260505000023 60 259 10.0 16.0 0.00 0.00 0.00 67 1010.7
20260504234615 60 271 10.0 15.0 0.00 0.00 0.00 68 1010.7
20260504233048 60 279 11.0 17.0 0.00 0.00 0.00 66 1010.7
20260504231630 61 286 9.0 16.0 0.00 0.00 0.00 67 1010.7
20260504230049 61 263 10.0 18.0 0.00 0.00 0.00 68 1010.8
20260504224511 61 334 7.0 16.0 0.00 0.00 0.00 71 1010.9
20260504223105 61 293 6.0 18.0 0.00 0.00 0.00 71 1010.9
20260504221530 59 247 10.0 19.0 0.00 0.00 0.00 73 1011.1
20260504220137 60 263 5.0 16.0 0.00 0.00 0.00 72 1011.2
20260504214536 60 244 6.0 13.0 0.00 0.00 0.00 71 1011.2
20260504213129 59 261 13.0 20.0 0.00 0.00 0.00 72 1011.3
20260504211546 60 269 9.0 17.0 0.00 0.00 0.00 71 1011.3
20260504210011 59 261 9.0 19.0 0.00 0.00 0.00 73 1011.4
20260504204619 59 262 8.0 12.0 0.00 0.00 0.00 72 1011.5
20260504203032 58 222 5.0 13.0 0.00 0.00 0.00 73 1011.5
20260504201621 58 286 8.0 14.0 0.00 0.00 0.00 72 1011.5
20260504200044 59 259 6.0 12.0 0.00 0.00 0.00 72 1011.5
20260504194503 59 286 8.0 14.0 0.00 0.00 0.00 71 1011.5
20260504193056 59 257 10.0 16.0 0.00 0.00 0.00 71 1011.5
20260504191515 59 274 8.0 16.0 0.00 0.00 0.00 72 1011.5
20260504190110 59 222 6.0 15.0 0.00 0.00 0.00 73 1011.5
20260504184535 60 211 5.0 11.0 0.00 0.00 0.00 72 1011.5
20260504183122 60 269 5.0 14.0 0.00 0.00 0.00 73 1011.4
20260504181543 59 288 9.0 14.0 0.00 0.00 0.00 72 1011.5
20260504180135 58 270 6.0 15.0 0.00 0.00 0.00 74 1011.3
20260504174550 58 271 10.0 14.0 0.00 0.00 0.00 73 1011.2
20260504173013 61 239 7.0 14.0 0.00 0.00 0.00 68 1011.0
20260504171606 60 76 1.0 4.0 0.00 0.00 0.00 73 1010.8
20260504150107 55 155 0.0 2.0 0.00 0.00 0.00 87 1011.3
20260504140128 51 53 0.0 1.0 0.00 0.00 0.00 91 1011.3
20260504110104 51 235 0.0 2.0 0.00 0.00 0.00 88 1010.7
20260504081530 52 360 2.0 6.0 0.00 0.00 0.00 84 1011.0
20260504050120 53 212 11.0 19.0 0.00 0.00 0.00 82 1010.3
20260504044538 53 264 9.0 16.0 0.00 0.00 0.00 82 1010.2
20260504043127 53 198 7.0 20.0 0.00 0.00 0.00 83 1010.2
20260504041550 53 225 9.0 15.0 0.00 0.00 0.00 83 1010.1
20260504040012 53 233 9.0 14.0 0.00 0.00 0.00 82 1010.1